This demonstration page uses our WeatherBlox Daily Observations layout. Learn more.

Left ArrowRight Arrow

41.12389, -100.76542

Hourly Observations for December 26, 2016

Temp ( °F °C ) Dew Point ( °F °C ) Humidity (%) Winds ( mph kmh ) Pressure ( in mb ) Visibility ( mi km ) Precip ( " mm )
12:53 am 00:53 Mostly Clear 23 -5 6 -14.4 48 48 WNW 31 50 29.79 1009 10 16 0.00 0.00
1:53 am 01:53 Clear 21 -6.1 5 -15 50 50 WNW 28 44 29.83 1010 10 16 0.00 0.00
2:53 am 02:53 Clear 19 -7.2 5 -15 54 54 W 21 33 29.90 1013 10 16 0.00 0.00
3:53 am 03:53 Clear 19 -7.2 6 -14.4 57 57 WNW 16 26 29.92 1013 10 16 0.00 0.00
4:53 am 04:53 Clear 19 -7.2 7 -13.9 59 59 WNW 14 22 29.93 1014 10 16 0.00 0.00
5:53 am 05:53 Clear 17 -8.3 8 -13.3 68 68 WSW 10 17 30.01 1016 10 16 0.00 0.00
6:53 am 06:53 Clear 16 -8.9 9 -12.8 74 74 W 9 15 30.06 1018 10 16 0.00 0.00
7:53 am 07:53 Clear 19 -7.2 11 -11.7 71 71 W 12 19 30.08 1019 10 16 0.00 0.00
8:53 am 08:53 Sunny 19 -7.2 12 -11.1 74 74 W 12 19 30.13 1020 10 16 0.00 0.00
9:53 am 09:53 Sunny 25 -3.9 13 -10.6 60 60 W 14 22 30.15 1021 10 16 0.00 0.00
10:53 am 10:53 Sunny 29 -1.7 15 -9.4 56 56 W 15 24 30.18 1022 10 16 0.00 0.00
11:53 am 11:53 Sunny 35 1.7 17 -8.3 48 48 W 17 28 30.18 1022 10 16 0.00 0.00
12:53 pm 12:53 Sunny 40 4.4 18 -7.8 41 41 WNW 20 31 30.16 1021 10 16 0.00 0.00
1:53 pm 13:53 Sunny 42 5.6 17 -8.3 36 36 WNW 25 41 30.16 1021 10 16 0.00 0.00
2:53 pm 14:53 Sunny 41 5 15 -9.4 35 35 NW 28 44 30.17 1022 10 16 0.00 0.00
3:53 pm 15:53 Sunny 40 4.4 15 -9.4 36 36 NW 16 26 30.21 1023 10 16 0.00 0.00
4:53 pm 16:53 Partly Cloudy 38 3.3 15 -9.4 39 39 WNW 16 26 30.25 1025 10 16 0.00 0.00
5:53 pm 17:53 Mostly Clear 33 0.6 15 -9.4 47 47 WNW 10 17 30.29 1026 10 16 0.00 0.00
6:53 pm 18:53 Clear 27 -2.8 16 -8.9 63 63 WSW 7 11 30.32 1027 10 16 0.00 0.00
7:53 pm 19:53 Clear 24 -4.4 16 -8.9 71 71 NW 5 7 30.34 1027 10 16 0.00 0.00
8:53 pm 20:53 Clear 20 -6.7 14 -10 78 78 Calm 30.34 1027 10 16 0.00 0.00
9:53 pm 21:53 Clear 18 -7.8 14 -10 84 84 Calm 30.35 1028 10 16 0.00 0.00
10:53 pm 22:53 Clear 18 -7.8 14 -10 84 84 NW 6 9 30.34 1028 10 16 0.00 0.00
11:53 pm 23:53 Clear 18 -7.8 13 -10.6 81 81 WNW 3 6 30.32 1027 10 16 0.00 0.00

Powered by AerisWeather